[[{"header":{"parameterUnit":"m.s-1","parameterCategory":1,"la1":30.2991,"la2":30.254,"lo1":-89.0895,"lo2":-89.0444,"dy":0.0017,"dx":0.0017,"nx":28,"ny":28,"refTime":"2024-12-20T03:00:00:Z","depth":0,"parameterNumber":2,"parameterNumberName":"U-component_of_WINDS"},"data":[0,0,0,0,0,0,0,0,0,0,0,0,0,0,0,0,0,0,0,0,0,0,0,0,0,0,0,0,0,0,0,0,0,0,0,0,0,0,0,0,0,0,0,0,0,0,0,0,0,0,0,0,0,0,0,0,0,0,-1.7147,-1.7148,0,-1.7231,-1.7232,-1.7233,-1.7181,-1.7178,-1.7176,-1.7173,-1.7262,-1.7266,-1.7271,0,0,0,0,0,0,0,0,0,0,0,0,0,-1.6942,-1.6946,-1.7147,-1.7148,-1.7149,-1.7231,-1.7232,-1.7233,-1.7181,-1.7178,-1.7175,-1.7172,-1.726,-1.7266,-1.7271,0,0,0,0,0,0,0,0,0,0,0,0,0,-1.7029,-1.6947,-1.7147,-1.7133,-1.7132,-1.7231,-1.7232,-1.7234,-1.7182,-1.7178,-1.7174,-1.7171,-1.7258,-1.7265,-1.7272,-1.739,0,0,-1.7293,-1.7296,0,0,0,0,0,0,0,0,-1.7024,-1.7037,-1.7134,-1.7134,-1.7134,-1.7192,-1.7192,-1.7286,-1.7183,-1.7163,-1.7173,-1.7169,-1.7242,-1.725,-1.7274,-1.7394,-1.7398,-1.7294,-1.7298,-1.7301,-1.7303,0,0,0,0,0,0,0,-1.7018,-1.7033,-1.718,-1.7135,-1.7135,-1.7123,-1.7131,-1.721,-1.7222,-1.7165,-1.7161,-1.7172,-1.7241,-1.7267,-1.7275,-1.7399,-1.7294,-1.73,-1.7304,-1.7307,-1.7619,-1.7623,0,0,0,0,0,0,-1.7013,-1.7028,-1.7178,-1.7183,-1.7069,-1.7129,-1.7139,-1.7177,-1.7221,-1.7224,-1.7175,-1.7169,-1.7257,-1.7267,-1.7278,-1.7419,-1.7301,-1.7308,-1.7312,-1.7615,-1.762,-1.7624,0,0,0,0,0,0,-1.7009,-1.7027,-1.7174,-1.7104,-1.7122,-1.7137,-1.718,-1.7181,-1.7207,-1.7229,-1.7231,-1.7199,-1.7255,-1.7269,-1.7362,-1.7422,-1.7311,-1.7317,-1.761,-1.7616,-1.7622,-1.7702,0,0,0,0,0,0,-1.7003,-1.7026,-1.707,-1.7106,-1.7126,-1.7257,-1.7184,-1.7185,-1.7219,-1.7212,-1.7252,-1.7256,-1.7253,-1.7352,-1.7369,-1.7429,-1.7323,-1.7605,-1.7613,-1.762,-1.7694,-1.771,-1.7724,0,0,0,0,0,-1.6996,-1.709,-1.7073,-1.7091,-1.7182,-1.726,-1.7272,-1.7266,-1.7224,-1.7269,-1.7283,-1.7254,-1.7412,-1.7362,-1.7381,-1.7444,-1.7601,-1.7611,-1.762,-1.7688,-1.7707,-1.7723,0,0,0,0,0,0,-1.7062,-1.7094,-1.7076,-1.7184,-1.722,-1.7251,-1.7309,-1.7287,-1.7336,-1.7328,-1.7319,-1.7328,-1.7426,-1.7444,-1.7388,-1.756,-1.75,-1.7513,-1.7545,-1.7564,-1.7578,-1.7573,-1.7329,0,0,0,0,0,-1.7089,-1.715,-1.7174,-1.7268,-1.7286,-1.7294,-1.7328,-1.732,-1.7357,-1.7372,-1.7393,-1.743,-1.7488,-1.7526,-1.7581,-1.7695,-1.7704,-1.7748,-1.7763,-1.7775,-1.7787,-1.7849,-1.7869,-1.7655,-1.7654,-1.7654,0,0,-1.7146,-1.7171,-1.721,-1.7282,-1.7308,-1.7371,-1.7308,-1.7377,-1.7424,-1.7383,-1.7473,-1.7489,-1.753,-1.7635,-1.7682,-1.7653,-1.7848,-1.7786,-1.7796,-1.7802,-1.7861,-1.7881,-1.7899,-1.7661,-1.766,-1.7659,0,0,-1.7283,-1.7307,-1.7388,-1.7415,-1.7456,-1.746,-1.748,-1.7514,-1.7523,-1.7613,-1.7583,-1.7639,-1.7738,-1.7769,-1.7797,-1.7943,-1.7919,-1.7961,-1.8039,-1.81,-1.8117,-1.8132,-1.8185,-1.8204,-1.7972,-1.7973,-1.7973,0,-1.7349,-1.7442,-1.7432,-1.7504,-1.7536,-1.75,-1.7582,-1.7609,-1.7666,-1.7689,-1.7655,-1.7779,-1.7804,-1.7915,-1.7951,-1.7974,-1.7997,-1.7957,-1.8115,-1.813,-1.8144,-1.8194,-1.8214,-1.7978,-1.7977,-1.7977,-1.7976,0,-1.7522,-1.7587,-1.7647,-1.7702,-1.7741,-1.7817,-1.7819,-1.7859,-1.7847,-1.7855,-1.7947,-1.7975,-1.8034,-1.8059,-1.8049,-1.8169,-1.815,-1.8115,-1.8056,-1.8169,-1.8216,-1.8236,-1.7985,-1.7983,-1.7981,-1.798,0,0,-1.7706,-1.7752,-1.7775,-1.7799,-1.784,-1.7891,-1.7965,-1.8022,-1.8057,-1.8097,-1.8159,-1.8243,-1.8211,-1.8244,-1.8236,-1.8289,-1.8403,-1.8247,-1.8248,-1.8277,-1.8538,-1.8565,-1.8588,-1.8386,-1.839,-1.8392,-1.8535,0,-1.7846,-1.7975,-1.7967,-1.8089,-1.8149,-1.8115,-1.8179,-1.8212,-1.8221,-1.8273,-1.8283,-1.8343,-1.8295,-1.8315,-1.8365,-1.8379,-1.8456,-1.8368,-1.8445,-1.8448,-1.8438,-1.8612,-1.8642,-1.8775,-1.8554,-1.8557,-1.8559,0,-1.8027,-1.8072,-1.82,-1.8232,-1.8256,-1.8315,-1.8366,-1.8416,-1.8452,-1.8455,-1.849,-1.8473,-1.8548,-1.8484,-1.8587,-1.8527,-1.8558,-1.8569,-1.8574,-1.8583,-1.8512,-1.8628,-1.8818,-1.8838,-1.8588,-1.8585,-1.8583,0,-1.815,-1.8242,-1.8331,-1.8352,-1.8391,-1.8433,-1.8451,-1.8483,-1.8517,-1.8562,-1.8584,-1.8637,-1.8667,-1.8708,-1.8706,-1.8659,-1.8811,-1.8747,-1.8816,-1.8816,-1.8851,-1.885,-1.9051,-1.8868,-1.8868,-1.8867,-1.8867,0,-1.8308,-1.8388,-1.8386,-1.8441,-1.8529,-1.8518,-1.8606,-1.862,-1.8648,-1.8705,-1.8677,-1.8731,-1.8724,-1.8778,-1.8776,-1.8862,-1.8876,-1.888,-1.8879,-1.8884,-1.8884,-1.8906,-1.8897,-1.8873,-1.8872,-1.8871,-1.887,0,-1.8462,-1.8463,-1.8558,-1.8586,-1.8595,-1.8659,-1.8683,-1.8735,-1.874,-1.8812,-1.8828,-1.8837,-1.8899,-1.89,-1.8971,-1.897,-1.9076,-1.9063,-1.9064,-1.9062,-1.9132,-1.9126,-1.9356,-1.9386,-1.9182,-1.9184,-1.9186,0,-1.8564,-1.8624,-1.8659,-1.8694,-1.8715,-1.8773,-1.8807,-1.8799,-1.8836,-1.888,-1.8927,-1.8986,-1.9033,-1.9133,-1.9147,-1.9201,-1.919,-1.9267,-1.9199,-1.9201,-1.9193,-1.919,-1.9197,-1.9281,-1.9284,-1.9285,-1.9287,0,-1.8745,-1.8743,-1.8794,-1.8845,-1.8887,-1.8927,-1.8964,-1.8995,-1.899,-1.9033,-1.9096,-1.9132,-1.9204,-1.9263,-1.9315,-1.9334,-1.9311,-1.9308,-1.9327,-1.9334,-1.9332,-1.9335,-1.9102,-1.9303,-1.9302,-1.9301,-1.93,-1.9299,-1.8877,-1.8929,-1.8961,-1.9019,-1.9045,-1.908,-1.913,-1.9141,-1.9193,-1.9251,-1.9242,-1.9312,-1.9345,-1.9412,-1.9434,-1.9489,-1.9462,-1.949,-1.9497,-1.9505,-1.9513,-1.9321,-1.9498,-1.9498,-1.9497,-1.9497,-1.9497,0,-1.9059,-1.9077,-1.913,-1.9182,-1.9227,-1.9199,-1.9238,-1.9278,-1.934,-1.9372,-1.9418,-1.949,-1.9547,-1.9563,-1.9618,-1.9659,-1.9649,-1.9674,-1.9672,-1.9676,-1.9533,-1.9512,-1.968,-1.968,-1.968,-1.968,-1.968,-1.968,-1.9158,-1.9245,-1.9246,-1.9346,-1.9363,-1.9431,-1.9456,-1.9488,-1.9514,-1.9595,-1.9642,-1.9651,-1.9678,-1.9734,-1.9784,-1.9788,-1.981,-1.9839,-1.9838,-1.9705,-1.9686,-1.9669,-1.9649,-1.9844,-1.9844,-1.9977,-1.9978,-1.9979]},{"header":{"parameterUnit":"m.s-1","parameterCategory":1,"la1":30.2991,"la2":30.254,"lo1":-89.0895,"lo2":-89.0444,"dy":0.0017,"dx":0.0017,"nx":28,"ny":28,"refTime":"2024-12-20T03:00:00:Z","depth":0,"parameterNumber":3,"parameterNumberName":"V-component_of_WINDS"},"data":[0,0,0,0,0,0,0,0,0,0,0,0,0,0,0,0,0,0,0,0,0,0,0,0,0,0,0,0,0,0,0,0,0,0,0,0,0,0,0,0,0,0,0,0,0,0,0,0,0,0,0,0,0,0,0,0,0,0,-5.9707,-5.9708,0,-5.9828,-5.9829,-5.9831,-5.9738,-5.9734,-5.973,-5.9727,-5.9846,-5.9852,-5.9859,0,0,0,0,0,0,0,0,0,0,0,0,0,-5.9389,-5.9396,-5.9707,-5.9708,-5.971,-5.9828,-5.9829,-5.9831,-5.9739,-5.9734,-5.9729,-5.9725,-5.9844,-5.9852,-5.986,0,0,0,0,0,0,0,0,0,0,0,0,0,-5.9521,-5.9398,-5.9706,-5.9678,-5.9677,-5.9828,-5.983,-5.9832,-5.974,-5.9734,-5.9728,-5.9723,-5.9841,-5.9851,-5.9861,-6.0044,0,0,-5.9893,-5.9897,0,0,0,0,0,0,0,0,-5.9513,-5.9532,-5.9681,-5.968,-5.9679,-5.9762,-5.9761,-5.9903,-5.9742,-5.9716,-5.9727,-5.972,-5.9822,-5.9834,-5.987,-6.005,-6.0055,-5.9893,-5.99,-5.9904,-5.9907,0,0,0,0,0,0,0,-5.9504,-5.9527,-5.9754,-5.9683,-5.9682,-5.9657,-5.967,-5.9788,-5.9801,-5.9718,-5.9711,-5.9727,-5.9821,-5.986,-5.9872,-6.0057,-5.9893,-5.9902,-5.9909,-5.9913,-6.0392,-6.0398,0,0,0,0,0,0,-5.9499,-5.952,-5.9751,-5.9758,-5.958,-5.9668,-5.9682,-5.9741,-5.98,-5.9803,-5.9732,-5.9723,-5.9845,-5.986,-5.9876,-6.0093,-5.9904,-5.9914,-5.992,-6.0386,-6.0393,-6.04,0,0,0,0,0,0,-5.9492,-5.952,-5.9746,-5.9637,-5.9664,-5.968,-5.9748,-5.9747,-5.9786,-5.9811,-5.9812,-5.977,-5.9841,-5.9861,-6.0003,-6.0096,-5.9918,-5.9928,-6.0378,-6.0388,-6.0397,-6.0531,0,0,0,0,0,0,-5.9484,-5.9519,-5.959,-5.964,-5.967,-5.9874,-5.9754,-5.9754,-5.9805,-5.9793,-5.9847,-5.985,-5.9838,-5.9988,-6.0013,-6.0107,-5.9936,-6.0369,-6.0382,-6.0394,-6.0519,-6.0545,-6.0567,0,0,0,0,0,-5.9473,-5.9622,-5.9594,-5.9622,-5.976,-5.9879,-5.9897,-5.9882,-5.9813,-5.9884,-5.9899,-5.9848,-6.0082,-6.0004,-6.0031,-6.013,-6.0364,-6.0379,-6.0393,-6.0508,-6.054,-6.0566,0,0,0,0,0,0,-5.9581,-5.9628,-5.9597,-5.9768,-5.9821,-5.9863,-5.9953,-5.9916,-5.9988,-5.9974,-5.995,-5.9963,-6.0112,-6.0135,-6.0047,-6.0309,-6.0211,-6.0232,-6.0289,-6.032,-6.0343,-6.0335,-5.9944,0,0,0,0,0,-5.9625,-5.972,-5.9755,-5.9901,-5.993,-5.9937,-5.9988,-5.9972,-6.0025,-6.0046,-6.0072,-6.0124,-6.0209,-6.0265,-6.0345,-6.0521,-6.0531,-6.0602,-6.0626,-6.0646,-6.0664,-6.0758,-6.079,-6.0449,-6.0449,-6.0448,0,0,-5.9716,-5.9754,-5.9815,-5.9924,-5.9963,-6.006,-5.9956,-6.0063,-6.0134,-6.0062,-6.0198,-6.0219,-6.0275,-6.0435,-6.0506,-6.0458,-6.076,-6.0665,-6.068,-6.0688,-6.0776,-6.0809,-6.0837,-6.0459,-6.0457,-6.0455,0,0,-5.9933,-5.9971,-6.0097,-6.0139,-6.0199,-6.0203,-6.0233,-6.0282,-6.0294,-6.0431,-6.0378,-6.0461,-6.0608,-6.065,-6.0691,-6.0922,-6.0877,-6.0948,-6.1074,-6.1165,-6.1192,-6.1216,-6.1298,-6.1327,-6.0966,-6.0967,-6.0967,0,-6.0038,-6.0184,-6.0166,-6.0278,-6.0327,-6.0267,-6.0394,-6.0434,-6.0517,-6.0551,-6.0496,-6.068,-6.0713,-6.0881,-6.0938,-6.0973,-6.1005,-6.0942,-6.119,-6.1214,-6.1235,-6.1313,-6.1344,-6.0975,-6.0974,-6.0973,-6.0972,0,-6.031,-6.0412,-6.0506,-6.059,-6.0649,-6.0768,-6.0766,-6.0828,-6.0806,-6.0815,-6.0954,-6.0992,-6.1078,-6.1117,-6.1096,-6.1282,-6.125,-6.1194,-6.1095,-6.1277,-6.1349,-6.1379,-6.0987,-6.0984,-6.0981,-6.0979,0,0,-6.0599,-6.0671,-6.0706,-6.0743,-6.0805,-6.0882,-6.0997,-6.1083,-6.1136,-6.1194,-6.1289,-6.1415,-6.1362,-6.1408,-6.1392,-6.1472,-6.1652,-6.1405,-6.1406,-6.1449,-6.1858,-6.1901,-6.1936,-6.1623,-6.1628,-6.1633,-6.1853,0,-6.0818,-6.102,-6.1007,-6.1196,-6.1289,-6.1233,-6.1333,-6.1381,-6.1392,-6.147,-6.1481,-6.1571,-6.1495,-6.1522,-6.16,-6.1614,-6.1734,-6.1598,-6.1709,-6.1713,-6.1697,-6.1974,-6.202,-6.2226,-6.1882,-6.1887,-6.189,0,-6.11,-6.1171,-6.137,-6.1418,-6.1456,-6.1546,-6.1623,-6.17,-6.1752,-6.1754,-6.1806,-6.1776,-6.1889,-6.1788,-6.1943,-6.1851,-6.1895,-6.1909,-6.1916,-6.1926,-6.1813,-6.1991,-6.2292,-6.2323,-6.1935,-6.1931,-6.1928,0,-6.1291,-6.1435,-6.1573,-6.1606,-6.1665,-6.173,-6.1757,-6.1803,-6.1855,-6.1922,-6.1955,-6.2033,-6.2076,-6.2136,-6.2127,-6.2054,-6.2285,-6.2183,-6.2289,-6.2289,-6.234,-6.2337,-6.2652,-6.2369,-6.2368,-6.2368,-6.2367,0,-6.1537,-6.1661,-6.1659,-6.1744,-6.188,-6.1863,-6.1998,-6.2017,-6.2059,-6.2145,-6.21,-6.2182,-6.2165,-6.2245,-6.2238,-6.2367,-6.2387,-6.239,-6.2387,-6.2395,-6.2394,-6.2423,-6.2409,-6.2376,-6.2374,-6.2373,-6.2371,0,-6.1772,-6.1776,-6.1923,-6.1967,-6.1981,-6.208,-6.2116,-6.2195,-6.2202,-6.2312,-6.2336,-6.2347,-6.2439,-6.2436,-6.254,-6.2535,-6.2694,-6.2673,-6.2677,-6.2673,-6.2778,-6.2768,-6.3123,-6.3169,-6.2856,-6.2859,-6.2862,0,-6.1929,-6.2024,-6.2078,-6.2134,-6.2166,-6.2255,-6.2308,-6.2294,-6.2351,-6.2417,-6.2488,-6.2576,-6.2646,-6.2796,-6.2811,-6.289,-6.2872,-6.299,-6.2883,-6.2887,-6.2873,-6.2868,-6.2876,-6.3012,-6.3015,-6.3018,-6.302,0,-6.2207,-6.2204,-6.2284,-6.2365,-6.243,-6.2492,-6.2549,-6.2596,-6.2588,-6.2653,-6.2748,-6.2803,-6.2909,-6.2997,-6.3072,-6.3098,-6.3058,-6.3054,-6.3083,-6.3091,-6.3089,-6.3091,-6.2734,-6.3046,-6.3043,-6.3042,-6.304,-6.3039,-6.2408,-6.2489,-6.254,-6.263,-6.2672,-6.2726,-6.2802,-6.2819,-6.2899,-6.2986,-6.2972,-6.3077,-6.3125,-6.3223,-6.3255,-6.3336,-6.3294,-6.3335,-6.3346,-6.3356,-6.3368,-6.3077,-6.335,-6.3349,-6.3348,-6.3348,-6.3347,0,-6.2683,-6.2713,-6.2796,-6.2878,-6.2948,-6.2906,-6.2966,-6.3027,-6.3122,-6.3171,-6.3241,-6.3349,-6.3433,-6.3456,-6.3537,-6.3597,-6.3581,-6.3619,-6.3614,-6.362,-6.3402,-6.3369,-6.3631,-6.3631,-6.3631,-6.3631,-6.3631,-6.363,-6.2835,-6.2969,-6.2973,-6.3127,-6.3155,-6.326,-6.3298,-6.3347,-6.3386,-6.3509,-6.358,-6.3595,-6.3633,-6.3716,-6.3791,-6.3795,-6.3826,-6.3872,-6.3869,-6.3664,-6.3636,-6.3609,-6.3578,-6.3879,-6.388,-6.4081,-6.4083,-6.4084]}]]